www.pogodaiklimat.ru

Погода и климат >> Архив погоды >> Россия >> Коми >> Койгородок


АРХИВ ПОГОДЫ в Койгородке

Время (UTC), дата Ветер
(напр.,м/с)
 
Видим.   Явления Облачность Т
(С)
Тd
(С)
f
(%)
Тe
(С)
Тes
(С)
Комфортность P
(гПа)
Po
(гПа)
Тmin
(С)
Tmax
(С)
R
(мм)
R24
(мм)
S
(см)
15 16.07 СЗ 2
{10}
20 км 8/5 600 м
[Cb cap Ac lent Ci ing]
+19.4 +13.6 69 +21 +22 комфорт 1009.4 994.8 +20.6 0.1
18 16.07 ЮЗ 1 20 км {гроза} 8/0
[Ac As Ci fib]
+15.3 +13.3 88 +16 +16 1010.5 995.7
21 16.07 штиль 0 15 км 4/0
[Ci fib]
+9.6 +9.4 99 +9 +9 1012.8 997.6
00 17.07 штиль 0 13 км 8/1 600 м
[Sc Ci fib]
+6.7 +6.5 99 +6 +6 1014.7 999.3
03 17.07 штиль 0 20 км 3/0
[Ci fib]
+13.1 +9.8 80 +13 +16 1015.5 1000.4 +6.4
06 17.07 С 1 20 км 3/0
[Ci fib]
+19.9 +11.4 58 +23 +33 комфорт 1015.6 1000.9
09 17.07 ЮЗ 1 20 км 8/4 1000 м
[Cu med, cong Ci fib]
+20.6 +8.9 47 +23 +31 комфорт 1015.6 1000.9
12 17.07 С 2 20 км 8/4 1000 м
[Cu Sc Ci fib]
+23.2 +8.6 39 +24 +29 комфорт 1015.0 1000.4
15 17.07 С 2 20 км 8/3 1000 м
[Sc Ci fib]
+22.3 +10.0 46 +24 +25 комфорт 1014.5 999.9 +23.2
18 17.07 штиль 0 20 км 5/0
[Ci fib]
+14.1 +12.3 89 +14 +14 1015.5 1000.5
21 17.07 штиль 0 18 км 4/0
[Ci fib]
+9.1 +8.9 99 +8 +8 1015.7 1000.4
00 18.07 СЗ 1 20 км 1/0
[Ci fib]
+6.8 +6.6 99 +6 +6 1015.9 1000.5
03 18.07 С 1 20 км 1/0
[Ci fib]
+13.0 +9.7 80 +13 +16 1015.9 1000.8 +6.6
06 18.07 С 3 20 км 1/0
[Ci fib]
+19.1 +9.0 52 +20 +28 1015.0 1000.2
09 18.07 С 2 20 км 1/0
[Ci fib]
+21.0 +5.8 37 +23 +35 комфорт 1013.7 999.0
12 18.07 С 1 20 км 1/0
[Ci fib]
+22.9 +5.1 31 +23 +32 комфорт 1012.3 997.7
15 18.07 С 2 20 км 1/0
[Ci fib]
+22.0 +10.0 46 +24 +25 комфорт 1011.8 997.3 +22.9
18 18.07 штиль 0 20 км 1/0
[Ci fib]
+13.5 +10.0 79 +13 +13 1012.3 997.3
21 18.07 З 2 20 км ясно +8.9 +6.5 85 +7 +7 1012.5 997.3
00 19.07 штиль 0 20 км 3/0
[Ci fib]
+4.9 +4.2 95 +4 +4 1012.5 997.1
03 19.07 штиль 0 20 км ясно +11.1 +8.6 85 +10 +14 1012.2 997.1 +4.1
06 19.07 штиль 0 20 км ясно +20.1 +9.9 52 +21 +34 комфорт 1010.8 996.2
09 19.07 ЮВ 1 20 км 3/0
[Ci fib]
+22.7 +8.9 41 +24 +38 комфорт 1009.2 994.7
12 19.07 Ю 1 20 км 6/0
[Ci fib]
+25.2 +9.8 38 +26 +34 жарко 1008.3 994.0
15 19.07 штиль 0 20 км 10/0
[Ci fib]
+24.3 +10.2 41 +25 +27 комфорт 1008.0 993.6 +25.4
18 19.07 штиль 0 20 км 8/1 1000 м
[Sc Ac trans Ci fib]
+16.8 +14.9 89 +17 +17 1008.0 993.3
21 19.07 Ю 1 7000 м слаб. ливневой дождь 10/10 720 м
[Cb calv]
+15.5 +13.9 90 +16 +16 1008.4 993.6
00 20.07 Ю 1 14 км {ливн. осадки} 10/3 1000 м
[Sc As op]
+14.1 +13.5 96 +14 +14 1008.4 993.5
03 20.07 Ю 1 9000 м дымка ясно +16.3 +15.1 93 +17 +20 1009.0 994.2 +13.3 2
06 20.07 Ю 2 20 км 1/0
[Ci fib]
+22.1 +14.7 63 +25 +35 комфорт 1008.7 994.2
09 20.07 Ю 1 1500 м гроза, ливневой дождь 9/8 800 м
[Cb calv Ci fib]
+21.3 +15.9 71 +25 +27 комфорт 1008.2 993.7
12 20.07 Ю 2 20 км {гроза, ливн. осадки} 9/8 1000 м
[Cb calv Ci fib]
+24.4 +14.9 55 +27 +29 жарко 1008.0 993.6
15 20.07 Ю 3 20 км 5/4 1000 м
[Cb cap Ci ing]
+24.5 +13.4 50 +27 +27 жарко 1007.4 993.0 +26.0 4
18 20.07 З 3 20 км 9/9 1020 м
[Cb calv]
+18.5 +15.8 84 +19 +19 1009.0 994.3
21 20.07 штиль 0 30 км {гроза} 6/4 1000 м
[Cb calv Ac trans]
+15.6 +14.6 94 +15 +15 1008.4 993.6
00 21.07 штиль 0 15 км {гроза} 3/0
[Ac trans]
+11.5 +11.1 97 +11 +11 1008.9 993.9
03 21.07 ЮВ 1 20 км 5/0
[Ac trans]
+14.9 +13.2 90 +15 +18 1008.4 993.5 +11.1
06 21.07 ЮЗ 2 20 км 8/3 600 м
[Cb calv Ac trans]
+18.5 +15.2 81 +20 +24 1008.4 993.7
09 21.07 З 3 20 км 9/9 930 м
[Cb calv]
+19.6 +14.9 74 +22 +23 комфорт 1008.5 993.9
12 21.07 З 3 20 км в посл. час гроза 8/4 600 м
[Cb calv Ci fib]
+22.0 +13.3 58 +25 +28 комфорт 1008.4 993.9
15 21.07 штиль 0 20 км 8/3 1000 м
[Cb calv Ac trans Ci fib]
+22.9 +13.6 56 +26 +27 жарко 1008.3 993.8
18 21.07 З 1 20 км 3/1 600 м
[Cb calv Ac trans]
+16.8 +14.2 85 +18 +18 1008.7 993.9
21 21.07 штиль 0 8000 м дымка 1/1 600 м
[Sc]
+11.7 +11.5 99 +11 +11 1008.7 993.7
00 22.07 штиль 0 500 м туман ?/? +12.5 +12.5 100 +12 +12 1008.7 993.7
03 22.07 ЮЗ 1 500 м туман ?/? +14.5 +14.5 100 +15 +15 1008.6 993.7 +10.4
06 22.07 З 1 5000 м дымка {туман} 10/10 120 м
[St]
+15.5 +14.8 96 +16 +16 1008.3 993.5
09 22.07 С 1 20 км в посл. час морось 10/10 270 м
[Cb calv]
+17.3 +15.4 89 +18 +18 1008.0 993.3
12 22.07 С 3 9000 м слаб. ливневой дождь {морось} 9/9 840 м
[Cb calv]
+19.8 +15.9 78 +22 +23 комфорт 1007.3 992.7
15 22.07 СЗ 1 8000 м слаб. ливневой дождь {гроза} 10/10 270 м
[Cb calv]
+17.9 +16.4 91 +19 +19 1006.8 992.2 +20.6 0.1
18 22.07 СЗ 2 16 км в посл. час ливневой дождь {гроза} 10/8 960 м
[Cb calv Ac trans]
+15.4 +15.2 99 +15 +15 1007.5 992.7
21 22.07 СЗ 1 14 км 10/10 420 м
[Cb calv]
+13.2 +13.0 99 +13 +13 1007.6 992.7
00 23.07 штиль 0 15 км 10/10 360 м
[Sc]
+13.7 +13.3 97 +13 +13 1008.2 993.3
03 23.07 штиль 0 20 км 10/8 400 м
[Sc Ac trans]
+14.6 +14.0 96 +14 +14 1009.1 994.2 +13.2 21
06 23.07 штиль 0 20 км 10/10 360 м
[Cb calv]
+15.7 +14.3 91 +15 +15 1009.9 995.1
09 23.07 штиль 0 20 км 9/8 480 м
[Cb calv Ci fib]
+19.6 +15.8 79 +21 +25 комфорт 1011.1 996.5
12 23.07 З 1 20 км 10/6 540 м
[Cb calv Ac trans Ci fib]
+18.8 +16.1 84 +21 +23 комфорт 1011.9 997.3

 

Местоположение метеостанции Койгородок (Коми, Россия): широта 60.45 долгота 50.97 высота над уровнем моря 125 м.

В архиве по умолчанию представлена погода в Койгородке за последнюю неделю. Архивные данные за месяц целиком и за предыдущие месяцы, начиная с января 2011 года, Вы можете получить, выбрав интересующий диапазон дат из раскрывающегося списка и нажав кнопку "Ввод!".


*Определитесь, кто Вы:
робот инопланетянин человек

Внимание! Время в таблицах - всемирное. Для получения местного времени необходимо прибавить поправку, которая равна 3 ч.

Смотрите также архив погоды в соседних городах и на ближайших метеорологических станциях:

Погода в Объячеве (Коми, Россия) (73 км)
Погода в Пустоши (Коми, Россия) (83 км)
Погода в Усть-Черной (Пермский край, Россия) (91 км)
Погода в Нагорске (Кировская область, Россия) (126 км)
Погода в Сыктывкаре (Коми, Россия) (137 км)
Погода в Кирсе (Кировская область, Россия) (142 км)
Погода в Опарино (Кировская область, Россия) (163 км)
Погода в Вилегодском (Архангельская область, Россия) (179 км)
Погода в Белой Холунице (Кировская область, Россия) (180 км)
Погода в Лальске (Кировская область, Россия) (186 км)

Пояснения к столбцам:

Ветер - указаны скорость ветра в м/с - средняя за 10 мин, порывы в срок и между сроками (в фигурных скобках) и направление, откуда дует ветер: С - северный, СВ - северо-восточный, В - восточный, ЮВ - юго-восточный, Ю - южный, ЮЗ - юго-западный, З - западный, СЗ - северо-западный.
Видимость - горизонтальная дальность видимости в метрах или километрах. При видимости от 1 до 10 км при отсутствии осадков обычно наблюдается дымка, при ухудшении видимости до 1 км и менее - туман. В сухую погоду видимость может ухудшаться дымом, пылью или мглою.
Явления - указаны атмосферные явления, наблюдавшиеся в срок или в последний час перед сроком; фигурными скобками обозначены явления, наблюдавшиеся между сроками (за 1-3 часа до срока); квадратными скобками обозначены град или гололедные отложения с указанием их диаметра в мм.
Облачность - указаны через наклонную черту общая и нижняя облачность в баллах и высота нижней границы облаков в метрах; квадратными скобками обозначены формы облаков: Ci - перистые, Cs - перисто-слоистые, Cc - перисто-кучевые, Ac - высококучевые, As - высокослоистые, Sc - слоисто-кучевые, Ns - слоисто-дождевые, Cu - кучевые, Cb - кучево-дождевые. Подробнее классификацию облаков см. в Атласе облаков (PDF).
T - Температура воздуха - температура, измеренная на высоте 2 м над землей.
Td - Температура точки росы - температура, при понижении до которой содержащийся в воздухе водяной пар достигнет насыщения.
f - Относительная влажность воздуха - влажноcть воздуха, измеренная на высоте 2 м над землей.
Te - Эффективная температура - температура, которую ощущает одетый по сезону человек в тени. Характеристика душности погоды. При расчете учитывается влияние влажности воздуха и скорости ветра на теплоощущения человека.
Tes - Эффективная температура на солнце - температура, которую ощущает человек, с поправкой на солнечный нагрев. Характеристика знойности погоды. Зависит от высоты солнца над горизонтом, облачности и скорости ветра. Ночью, в пасмурную погоду, а также при ветре 12 м/с и более поправка равна нулю.
P - Атмосферное давление - приведенное к уровню моря атмосферное давление.
Po - Атмосферное давление - измеренное на уровне метеостанции атмосферное давление.
Tmin - Минимальная температура - минимум температуры воздуха на высоте 2 м над землей.
Tmax - Максимальная температура - максимум температуры воздуха на высоте 2 м над землей.
R - Количество осадков - Количество выпавших осадков за период времени, мм. При наведении курсора мыши на число - период времени, за который выпало указанное количество осадков.
R24 - Количество осадков - Количество выпавших осадков за 24 часа, мм.
S - Снежный покров - Высота снежного покрова, см. При наведении курсора мыши на число - состояние снежного покрова и степень покрытия местности в баллах.